COSMOS 1275 DEB, 42098

Orbit data source: Space-Track

COSMOS 1275 DEB, 42098 is space debris in LEO originally from a launch on Thu, 04 Jun 1981 UTC launched from the Plesetsk Missile And Space Complex (PKMTR). Debris objects in space refer to the collection of defunct objects orbiting the Earth. Examples of debris include non-operational satellites, rocket bodies, and fragments generated from explosions, collisions, or faulty payload assembly.

Loading next visibility...
Identifier
42098, 1981-053PJ
Orbit
LEO
Country
Flag of CISCIS
Related business
Manufacturer
Unknown
Mission
Spacecraft
Bus & Motor
Unknown
Mass
Unknown
Launch date (UTC)
1981-06-04 (44 years ago)
Launch vehicle
Unknown
Launch site
Plesetsk Missile And Space Complex (PKMTR)
Object type
Payload
Rocket body
Debris
Shape & HBR
Unknown shape, 0.1 m
Radar Cross Section
Small (<0.1 m²)

Expand to show TLE details & history
Last TLE update: 5 days ago

TLE from 5 days ago
0 COSMOS 1275 DEB
1 42098U 81053PJ  25304.76553515  .00001956  00000-0  21309-2 0  9999
2 42098  83.1549  71.7684 0140146 221.1112 137.9416 13.68141030594280
Epoch: 2025-10-31T18:22Z
TLE epoch observation values (Epoch: 2025-10-31T18:22:22.236Z)
Latitude
-0.00008°
Longitude
115.87047°
Altitude
1,086.64 km
Speed
7.27 km/s
True Right ascension
04h 47m 04s
True Declination
0° 00' 00"
Sunlit
Object was in full shadow at epoch
Visualization orbit readout
Latitude
Unknown
Longitude
Unknown
Altitude
Unknown
Speed
Unknown
Apparent Right ascension
Unknown
Apparent Declination
Unknown
Sunlit
N/A
Visualization observer readout
Local Sidereal Time
09:19:41
Azimuth
Unknown
Elevation
Unknown
Doppler factor
Unknown
Orbital elements
Apogee altitude
1,106.851 km
Perigee altitude
899.953 km
Semi-major axis
7,381.539 km
Eccentricity
0.01401
Inclination
83.1549°
RAAN
71.7684°
Arg. of periapsis
221.1112°
True anomaly
139.00353°
Mean anomaly
137.9416°
Eccentric anomaly
138.47394°
Mean motion
3.42234 °/min
Orbital period
105.19 mins
BSTAR
0.0021309
Loading maneuver chart data...
Computing Atmospheric mass density...

Documentation

Showing up to 5 results
|